| time (UTC) | temp F | wind direction | speed MPH | gust MPH | rain 1hr in | rain 24hr in | rain mn in | humidity % | barometer mb |
| 20260905232724 | 90 | 131 | 0.0 | 0.0 | 0.00 | 0.01 | 0.00 | 68 | 1010.0 |
| 20260905232222 | 90 | 131 | 0.0 | 1.0 | 0.00 | 0.01 | 0.00 | 67 | 1010.0 |
| 20260905232159 | 90 | 131 | 0.0 | 0.0 | 0.00 | 0.01 | 0.00 | 67 | 1010.0 |
| 20260905231724 | 91 | 131 | 0.0 | 0.0 | 0.00 | 0.01 | 0.00 | 65 | 1010.0 |
| 20260905231223 | 91 | 131 | 0.0 | 0.0 | 0.00 | 0.01 | 0.00 | 65 | 1009.9 |
| 20260905231156 | 91 | 131 | 0.0 | 0.0 | 0.00 | 0.01 | 0.00 | 65 | 1009.9 |
| 20260905230724 | 91 | 131 | 0.0 | 1.0 | 0.00 | 0.01 | 0.00 | 65 | 1009.9 |
| 20260905230223 | 91 | 131 | 1.0 | 1.0 | 0.00 | 0.01 | 0.00 | 65 | 1009.9 |
| 20260905230155 | 91 | 131 | 1.0 | 2.0 | 0.00 | 0.01 | 0.00 | 64 | 1009.9 |
| 20260905225722 | 91 | 82 | 2.0 | 2.0 | 0.00 | 0.01 | 0.00 | 64 | 1009.9 |
| 20260905225224 | 91 | 113 | 0.0 | 1.0 | 0.00 | 0.01 | 0.00 | 64 | 1009.9 |
| 20260905225157 | 91 | 103 | 0.0 | 2.0 | 0.00 | 0.01 | 0.00 | 64 | 1009.9 |
| 20260905224722 | 92 | 96 | 2.0 | 2.0 | 0.00 | 0.01 | 0.00 | 63 | 1009.9 |
| 20260905224223 | 92 | 116 | 1.0 | 2.0 | 0.00 | 0.01 | 0.00 | 61 | 1009.9 |
| 20260905224156 | 92 | 109 | 0.0 | 2.0 | 0.00 | 0.01 | 0.00 | 61 | 1009.9 |
| 20260905223723 | 92 | 110 | 0.0 | 2.0 | 0.00 | 0.01 | 0.00 | 61 | 1009.9 |
| 20260905223222 | 92 | 136 | 1.0 | 2.0 | 0.00 | 0.01 | 0.00 | 64 | 1009.9 |
| 20260905223155 | 92 | 88 | 1.0 | 1.0 | 0.00 | 0.01 | 0.00 | 60 | 1009.9 |
| 20260905222723 | 92 | 88 | 1.0 | 1.0 | 0.00 | 0.01 | 0.00 | 62 | 1009.8 |
| 20260905222231 | 92 | 76 | 0.0 | 1.0 | 0.00 | 0.01 | 0.00 | 61 | 1009.8 |
| 20260905222223 | 92 | 76 | 0.0 | 1.0 | 0.00 | 0.01 | 0.00 | 61 | 1009.8 |
| 20260905222156 | 92 | 76 | 0.0 | 1.0 | 0.00 | 0.01 | 0.00 | 61 | 1009.8 |
| 20260905221723 | 92 | 76 | 0.0 | 0.0 | 0.00 | 0.01 | 0.00 | 59 | 1009.8 |
| 20260905221222 | 93 | 18 | 0.0 | 0.0 | 0.00 | 0.01 | 0.00 | 58 | 1009.7 |
| 20260905221157 | 93 | 18 | 0.0 | 0.0 | 0.00 | 0.01 | 0.00 | 58 | 1009.7 |
| 20260905220723 | 93 | 13 | 0.0 | 1.0 | 0.00 | 0.01 | 0.00 | 58 | 1009.7 |
| 20260905220223 | 93 | 64 | 1.0 | 3.0 | 0.00 | 0.01 | 0.00 | 60 | 1009.7 |
| 20260905220156 | 93 | 52 | 3.0 | 3.0 | 0.00 | 0.01 | 0.00 | 60 | 1009.7 |
| 20260905215722 | 93 | 76 | 0.0 | 2.0 | 0.00 | 0.01 | 0.00 | 58 | 1009.7 |
| 20260905215222 | 93 | 157 | 0.0 | 0.0 | 0.00 | 0.01 | 0.00 | 61 | 1009.7 |
| 20260905215155 | 93 | 157 | 0.0 | 0.0 | 0.00 | 0.01 | 0.00 | 61 | 1009.7 |
| 20260905214723 | 93 | 164 | 1.0 | 2.0 | 0.00 | 0.01 | 0.00 | 58 | 1009.7 |
| 20260905214222 | 94 | 55 | 0.0 | 1.0 | 0.00 | 0.01 | 0.00 | 58 | 1009.9 |
| 20260905214157 | 94 | 41 | 0.0 | 1.0 | 0.00 | 0.01 | 0.00 | 58 | 1009.9 |
| 20260905213722 | 94 | 93 | 1.0 | 3.0 | 0.00 | 0.01 | 0.00 | 56 | 1009.9 |
| 20260905213223 | 94 | 0 | 0.0 | 4.0 | 0.00 | 0.01 | 0.00 | 57 | 1009.9 |
| 20260905213156 | 94 | 31 | 4.0 | 4.0 | 0.00 | 0.01 | 0.00 | 56 | 1009.9 |
| 20260905212724 | 94 | 147 | 1.0 | 3.0 | 0.00 | 0.01 | 0.00 | 54 | 1010.1 |
| 20260905212223 | 94 | 49 | 1.0 | 2.0 | 0.00 | 0.01 | 0.00 | 57 | 1010.1 |
| 20260905212156 | 94 | 68 | 0.0 | 0.0 | 0.00 | 0.01 | 0.00 | 57 | 1010.1 |
| 20260905211722 | 94 | 68 | 0.0 | 1.0 | 0.00 | 0.01 | 0.00 | 55 | 1010.1 |
| 20260905211223 | 95 | 49 | 3.0 | 3.0 | 0.00 | 0.01 | 0.00 | 57 | 1010.2 |
| 20260905211156 | 95 | 64 | 3.0 | 4.0 | 0.00 | 0.01 | 0.00 | 54 | 1010.2 |
| 20260905210722 | 95 | 58 | 0.0 | 0.0 | 0.00 | 0.01 | 0.00 | 58 | 1010.2 |
| 20260905210222 | 95 | 16 | 1.0 | 1.0 | 0.00 | 0.01 | 0.00 | 58 | 1010.2 |
| 20260905210157 | 95 | 16 | 1.0 | 2.0 | 0.00 | 0.01 | 0.00 | 54 | 1010.2 |
| 20260905205723 | 96 | 119 | 1.0 | 1.0 | 0.00 | 0.01 | 0.00 | 53 | 1010.3 |
| 20260905205223 | 95 | 71 | 0.0 | 0.0 | 0.00 | 0.01 | 0.00 | 52 | 1010.3 |
| 20260905205156 | 95 | 71 | 0.0 | 0.0 | 0.00 | 0.01 | 0.00 | 52 | 1010.3 |
| 20260905204723 | 95 | 86 | 0.0 | 0.0 | 0.00 | 0.01 | 0.00 | 53 | 1010.3 |
| 20260905204224 | 95 | 86 | 2.0 | 2.0 | 0.00 | 0.01 | 0.00 | 54 | 1010.3 |
| 20260905204155 | 95 | 10 | 2.0 | 4.0 | 0.00 | 0.01 | 0.00 | 54 | 1010.3 |
| 20260905203722 | 95 | 45 | 3.0 | 5.0 | 0.00 | 0.01 | 0.00 | 53 | 1010.3 |
| 20260905203223 | 95 | 78 | 3.0 | 5.0 | 0.00 | 0.01 | 0.00 | 53 | 1010.3 |
| 20260905203157 | 95 | 45 | 2.0 | 4.0 | 0.00 | 0.01 | 0.00 | 55 | 1010.3 |
| 20260905202724 | 95 | 32 | 3.0 | 3.0 | 0.00 | 0.01 | 0.00 | 54 | 1010.6 |
| 20260905202222 | 95 | 76 | 3.0 | 6.0 | 0.00 | 0.01 | 0.00 | 53 | 1010.6 |
| 20260905202156 | 95 | 110 | 3.0 | 5.0 | 0.00 | 0.01 | 0.00 | 53 | 1010.6 |
| 20260905201723 | 95 | 346 | 3.0 | 3.0 | 0.00 | 0.01 | 0.00 | 54 | 1010.6 |
| 20260905201223 | 95 | 0 | 3.0 | 5.0 | 0.00 | 0.01 | 0.00 | 53 | 1010.7 |
| 20260905201155 | 95 | 13 | 3.0 | 6.0 | 0.00 | 0.01 | 0.00 | 53 | 1010.7 |
| 20260905200724 | 95 | 80 | 3.0 | 5.0 | 0.00 | 0.01 | 0.00 | 52 | 1010.7 |
| 20260905200223 | 95 | 18 | 2.0 | 4.0 | 0.00 | 0.01 | 0.00 | 52 | 1010.7 |
| 20260905200155 | 95 | 79 | 4.0 | 4.0 | 0.00 | 0.01 | 0.00 | 52 | 1010.7 |
| 20260905195723 | 95 | 49 | 4.0 | 6.0 | 0.00 | 0.01 | 0.00 | 55 | 1010.7 |
| 20260905195224 | 95 | 85 | 0.0 | 1.0 | 0.00 | 0.01 | 0.00 | 54 | 1010.7 |
| 20260905195157 | 95 | 48 | 2.0 | 3.0 | 0.00 | 0.01 | 0.00 | 57 | 1010.7 |
| 20260905194722 | 95 | 0 | 0.0 | 0.0 | 0.00 | 0.01 | 0.00 | 55 | 1010.7 |
| 20260905194222 | 94 | 23 | 3.0 | 3.0 | 0.00 | 0.01 | 0.00 | 58 | 1011.0 |
| 20260905194155 | 94 | 13 | 1.0 | 1.0 | 0.00 | 0.01 | 0.00 | 58 | 1011.0 |
| 20260905193723 | 94 | 48 | 2.0 | 4.0 | 0.00 | 0.01 | 0.00 | 58 | 1011.0 |
| 20260905193223 | 94 | 10 | 2.0 | 7.0 | 0.00 | 0.01 | 0.00 | 59 | 1011.0 |
| 20260905193156 | 94 | 64 | 7.0 | 7.0 | 0.00 | 0.01 | 0.00 | 59 | 1011.0 |
| 20260905192722 | 94 | 58 | 4.0 | 4.0 | 0.00 | 0.01 | 0.00 | 59 | 1011.2 |
| 20260905192223 | 94 | 37 | 0.0 | 5.0 | 0.00 | 0.01 | 0.00 | 60 | 1011.2 |
| 20260905192156 | 94 | 73 | 0.0 | 2.0 | 0.00 | 0.01 | 0.00 | 62 | 1011.2 |
| 20260905191723 | 94 | 113 | 1.0 | 2.0 | 0.00 | 0.01 | 0.00 | 62 | 1011.2 |
| 20260905191222 | 94 | 295 | 0.0 | 3.0 | 0.00 | 0.01 | 0.00 | 61 | 1011.4 |
| 20260905191157 | 94 | 330 | 3.0 | 3.0 | 0.00 | 0.01 | 0.00 | 61 | 1011.4 |
| 20260905190724 | 94 | 27 | 0.0 | 1.0 | 0.00 | 0.01 | 0.00 | 61 | 1011.4 |
| 20260905190222 | 93 | 44 | 0.0 | 3.0 | 0.00 | 0.01 | 0.00 | 60 | 1011.4 |
| 20260905190155 | 93 | 76 | 1.0 | 1.0 | 0.00 | 0.01 | 0.00 | 61 | 1011.4 |
| 20260905185723 | 93 | 85 | 3.0 | 4.0 | 0.00 | 0.01 | 0.00 | 63 | 1011.6 |
| 20260905185223 | 93 | 141 | 1.0 | 2.0 | 0.00 | 0.01 | 0.00 | 62 | 1011.6 |
| 20260905185156 | 93 | 112 | 0.0 | 2.0 | 0.00 | 0.01 | 0.00 | 60 | 1011.6 |
| 20260905184722 | 93 | 0 | 0.0 | 1.0 | 0.00 | 0.01 | 0.00 | 60 | 1011.6 |
| 20260905184223 | 93 | 102 | 3.0 | 6.0 | 0.00 | 0.01 | 0.00 | 60 | 1011.9 |
| 20260905184156 | 93 | 99 | 3.0 | 3.0 | 0.00 | 0.01 | 0.00 | 60 | 1011.9 |
| 20260905183723 | 93 | 8 | 0.0 | 3.0 | 0.00 | 0.01 | 0.00 | 61 | 1011.9 |
| 20260905183222 | 93 | 56 | 1.0 | 3.0 | 0.00 | 0.01 | 0.00 | 61 | 1011.9 |
| 20260905183157 | 93 | 54 | 1.0 | 3.0 | 0.00 | 0.01 | 0.00 | 61 | 1011.9 |
| 20260905182723 | 93 | 73 | 2.0 | 3.0 | 0.00 | 0.01 | 0.00 | 61 | 1012.3 |
| 20260905182223 | 93 | 0 | 0.0 | 2.0 | 0.00 | 0.01 | 0.00 | 62 | 1012.3 |
| 20260905182156 | 93 | 1 | 2.0 | 3.0 | 0.00 | 0.01 | 0.00 | 63 | 1012.3 |
| 20260905181722 | 93 | 357 | 3.0 | 6.0 | 0.00 | 0.01 | 0.00 | 60 | 1012.3 |
| 20260905181223 | 93 | 352 | 3.0 | 6.0 | 0.00 | 0.01 | 0.00 | 62 | 1012.4 |
| 20260905181156 | 93 | 1 | 2.0 | 2.0 | 0.00 | 0.01 | 0.00 | 62 | 1012.4 |
| 20260905180723 | 93 | 120 | 2.0 | 2.0 | 0.00 | 0.01 | 0.00 | 62 | 1012.4 |
| 20260905180222 | 93 | 25 | 1.0 | 3.0 | 0.00 | 0.01 | 0.00 | 61 | 1012.4 |
| 20260905180157 | 93 | 42 | 1.0 | 5.0 | 0.00 | 0.01 | 0.00 | 64 | 1012.4 |
| 20260905175724 | 93 | 309 | 0.0 | 5.0 | 0.00 | 0.01 | 0.00 | 61 | 1012.6 |
| 20260905175222 | 93 | 357 | 0.0 | 3.0 | 0.00 | 0.01 | 0.00 | 63 | 1012.6 |
| 20260905175157 | 93 | 78 | 3.0 | 4.0 | 0.00 | 0.01 | 0.00 | 62 | 1012.6 |
| 20260905174723 | 93 | 51 | 1.0 | 1.0 | 0.00 | 0.01 | 0.00 | 67 | 1012.6 |
| 20260905174224 | 93 | 133 | 2.0 | 2.0 | 0.00 | 0.01 | 0.00 | 63 | 1012.8 |
| 20260905174156 | 93 | 82 | 0.0 | 1.0 | 0.00 | 0.01 | 0.00 | 63 | 1012.8 |
| 20260905173722 | 93 | 359 | 3.0 | 4.0 | 0.00 | 0.01 | 0.00 | 62 | 1012.8 |
| 20260905173223 | 93 | 61 | 2.0 | 2.0 | 0.00 | 0.01 | 0.00 | 64 | 1012.8 |
| 20260905173158 | 93 | 251 | 2.0 | 4.0 | 0.00 | 0.01 | 0.00 | 64 | 1012.8 |
| 20260905172724 | 92 | 325 | 0.0 | 1.0 | 0.00 | 0.01 | 0.00 | 64 | 1012.9 |
| 20260905172222 | 92 | 301 | 1.0 | 3.0 | 0.00 | 0.01 | 0.00 | 64 | 1012.9 |
| 20260905172157 | 92 | 52 | 3.0 | 3.0 | 0.00 | 0.01 | 0.00 | 64 | 1012.9 |
| 20260905171724 | 92 | 109 | 2.0 | 2.0 | 0.00 | 0.01 | 0.00 | 65 | 1012.9 |
| 20260905171223 | 92 | 83 | 2.0 | 2.0 | 0.00 | 0.01 | 0.00 | 65 | 1013.0 |
| 20260905171156 | 92 | 83 | 2.0 | 2.0 | 0.00 | 0.01 | 0.00 | 65 | 1013.0 |
| 20260905170723 | 92 | 124 | 5.0 | 7.0 | 0.00 | 0.01 | 0.00 | 66 | 1013.0 |
| 20260905170224 | 92 | 0 | 2.0 | 4.0 | 0.00 | 0.01 | 0.00 | 68 | 1013.0 |
| 20260905170157 | 92 | 1 | 4.0 | 6.0 | 0.00 | 0.01 | 0.00 | 68 | 1013.0 |
| 20260905165723 | 91 | 304 | 3.0 | 4.0 | 0.00 | 0.01 | 0.00 | 68 | 1013.2 |
| 20260905165223 | 91 | 0 | 4.0 | 4.0 | 0.00 | 0.01 | 0.00 | 68 | 1013.2 |
| 20260905165156 | 91 | 352 | 4.0 | 5.0 | 0.00 | 0.01 | 0.00 | 68 | 1013.2 |
| 20260905164723 | 91 | 357 | 2.0 | 6.0 | 0.00 | 0.01 | 0.00 | 68 | 1013.2 |
| 20260905164224 | 91 | 357 | 3.0 | 4.0 | 0.00 | 0.01 | 0.00 | 70 | 1013.3 |
| 20260905164156 | 91 | 44 | 4.0 | 5.0 | 0.00 | 0.01 | 0.00 | 70 | 1013.3 |
| 20260905163722 | 91 | 24 | 3.0 | 4.0 | 0.00 | 0.01 | 0.00 | 69 | 1013.3 |
| 20260905163223 | 90 | 37 | 0.0 | 1.0 | 0.00 | 0.01 | 0.00 | 69 | 1013.3 |
| 20260905163156 | 90 | 359 | 1.0 | 4.0 | 0.00 | 0.01 | 0.00 | 69 | 1013.3 |
| 20260905162724 | 90 | 27 | 1.0 | 3.0 | 0.00 | 0.01 | 0.00 | 68 | 1013.4 |
| 20260905162223 | 90 | 352 | 1.0 | 6.0 | 0.00 | 0.01 | 0.00 | 69 | 1013.4 |
| 20260905162156 | 90 | 1 | 2.0 | 4.0 | 0.00 | 0.01 | 0.00 | 69 | 1013.4 |
| 20260905161724 | 90 | 0 | 6.0 | 6.0 | 0.00 | 0.01 | 0.00 | 69 | 1013.4 |
| 20260905161222 | 90 | 316 | 0.0 | 3.0 | 0.00 | 0.01 | 0.00 | 69 | 1013.4 |
| 20260905161156 | 90 | 335 | 3.0 | 5.0 | 0.00 | 0.01 | 0.00 | 69 | 1013.4 |
| 20260905160723 | 90 | 10 | 2.0 | 5.0 | 0.00 | 0.01 | 0.00 | 68 | 1013.4 |
| 20260905160224 | 90 | 271 | 0.0 | 2.0 | 0.00 | 0.01 | 0.00 | 70 | 1013.4 |
| 20260905160157 | 90 | 357 | 1.0 | 3.0 | 0.00 | 0.01 | 0.00 | 71 | 1013.4 |
| 20260905155723 | 89 | 1 | 0.0 | 3.0 | 0.00 | 0.01 | 0.00 | 70 | 1013.4 |
| 20260905155224 | 89 | 352 | 4.0 | 4.0 | 0.00 | 0.01 | 0.00 | 73 | 1013.4 |
| 20260905155157 | 89 | 16 | 2.0 | 3.0 | 0.00 | 0.01 | 0.00 | 73 | 1013.4 |
| 20260905154723 | 89 | 51 | 0.0 | 1.0 | 0.00 | 0.01 | 0.00 | 74 | 1013.4 |
| 20260905154223 | 89 | 359 | 1.0 | 3.0 | 0.00 | 0.01 | 0.00 | 74 | 1013.6 |
| 20260905154157 | 89 | 319 | 1.0 | 2.0 | 0.00 | 0.01 | 0.00 | 74 | 1013.6 |
| 20260905153724 | 88 | 342 | 5.0 | 5.0 | 0.00 | 0.01 | 0.00 | 74 | 1013.6 |
| 20260905153223 | 88 | 315 | 0.0 | 2.0 | 0.00 | 0.01 | 0.00 | 75 | 1013.6 |
| 20260905153156 | 88 | 320 | 2.0 | 2.0 | 0.00 | 0.01 | 0.00 | 75 | 1013.6 |
| 20260905152722 | 88 | 343 | 3.0 | 3.0 | 0.00 | 0.01 | 0.00 | 75 | 1013.6 |
| 20260905152223 | 88 | 302 | 0.0 | 2.0 | 0.00 | 0.01 | 0.00 | 75 | 1013.6 |
| 20260905152155 | 87 | 292 | 2.0 | 3.0 | 0.00 | 0.01 | 0.00 | 75 | 1013.6 |
| 20260905151724 | 87 | 350 | 3.0 | 3.0 | 0.00 | 0.01 | 0.00 | 75 | 1013.6 |
| 20260905151222 | 87 | 340 | 3.0 | 5.0 | 0.00 | 0.01 | 0.00 | 76 | 1013.5 |
| 20260905151155 | 87 | 342 | 3.0 | 3.0 | 0.00 | 0.01 | 0.00 | 76 | 1013.5 |
| 20260905150723 | 87 | 0 | 2.0 | 3.0 | 0.00 | 0.01 | 0.00 | 77 | 1013.5 |
| 20260905150224 | 87 | 356 | 1.0 | 1.0 | 0.00 | 0.01 | 0.00 | 76 | 1013.5 |
| 20260905150200 | 87 | 326 | 0.0 | 2.0 | 0.00 | 0.01 | 0.00 | 76 | 1013.5 |
| 20260905145722 | 87 | 352 | 2.0 | 3.0 | 0.00 | 0.01 | 0.00 | 79 | 1013.6 |
| 20260905145223 | 86 | 42 | 1.0 | 1.0 | 0.00 | 0.01 | 0.00 | 78 | 1013.6 |
| 20260905145156 | 86 | 329 | 0.0 | 1.0 | 0.00 | 0.01 | 0.00 | 78 | 1013.6 |
| 20260905144724 | 86 | 0 | 1.0 | 2.0 | 0.00 | 0.01 | 0.00 | 78 | 1013.6 |
| 20260905144222 | 86 | 359 | 3.0 | 4.0 | 0.00 | 0.01 | 0.00 | 79 | 1013.7 |
| 20260905144155 | 86 | 339 | 0.0 | 3.0 | 0.00 | 0.01 | 0.00 | 79 | 1013.7 |
| 20260905143723 | 85 | 343 | 3.0 | 4.0 | 0.00 | 0.01 | 0.00 | 79 | 1013.7 |
| 20260905143222 | 85 | 312 | 0.0 | 4.0 | 0.00 | 0.01 | 0.00 | 80 | 1013.7 |
| 20260905143155 | 85 | 332 | 3.0 | 4.0 | 0.00 | 0.01 | 0.00 | 80 | 1013.7 |
| 20260905142723 | 85 | 356 | 2.0 | 4.0 | 0.00 | 0.01 | 0.00 | 81 | 1013.6 |
| 20260905142224 | 84 | 354 | 0.0 | 1.0 | 0.00 | 0.01 | 0.00 | 81 | 1013.6 |
| 20260905142158 | 84 | 354 | 2.0 | 3.0 | 0.00 | 0.01 | 0.00 | 81 | 1013.6 |
| 20260905141722 | 84 | 349 | 2.0 | 3.0 | 0.00 | 0.01 | 0.00 | 82 | 1013.6 |
| 20260905141223 | 84 | 353 | 2.0 | 3.0 | 0.00 | 0.01 | 0.00 | 83 | 1013.7 |
| 20260905141156 | 84 | 353 | 1.0 | 2.0 | 0.00 | 0.01 | 0.00 | 83 | 1013.7 |
| 20260905140724 | 83 | 44 | 1.0 | 2.0 | 0.00 | 0.01 | 0.00 | 83 | 1013.7 |
| 20260905140223 | 83 | 353 | 3.0 | 3.0 | 0.00 | 0.01 | 0.00 | 85 | 1013.7 |
| 20260905140156 | 83 | 356 | 0.0 | 2.0 | 0.00 | 0.01 | 0.00 | 85 | 1013.7 |
| 20260905135722 | 82 | 332 | 2.0 | 4.0 | 0.00 | 0.01 | 0.00 | 86 | 1013.8 |
| 20260905135223 | 82 | 352 | 2.0 | 3.0 | 0.00 | 0.01 | 0.00 | 87 | 1013.8 |
| 20260905135155 | 81 | 4 | 3.0 | 5.0 | 0.00 | 0.01 | 0.00 | 87 | 1013.8 |
| 20260905134723 | 81 | 0 | 1.0 | 3.0 | 0.00 | 0.01 | 0.00 | 87 | 1013.8 |
| 20260905134222 | 81 | 350 | 3.0 | 3.0 | 0.00 | 0.01 | 0.00 | 89 | 1014.0 |
| 20260905134158 | 80 | 24 | 1.0 | 3.0 | 0.00 | 0.01 | 0.00 | 89 | 1014.0 |
| 20260905133723 | 80 | 356 | 0.0 | 3.0 | 0.00 | 0.01 | 0.00 | 90 | 1014.0 |
| 20260905133248 | 80 | 356 | 3.0 | 4.0 | 0.00 | 0.01 | 0.00 | 90 | 1014.0 |
| 20260905133223 | 80 | 342 | 4.0 | 4.0 | 0.00 | 0.01 | 0.00 | 90 | 1014.0 |
| 20260905133158 | 80 | 356 | 3.0 | 4.0 | 0.00 | 0.01 | 0.00 | 90 | 1014.0 |
| 20260905132723 | 80 | 343 | 1.0 | 3.0 | 0.00 | 0.01 | 0.00 | 91 | 1014.1 |
| 20260905132224 | 79 | 356 | 2.0 | 2.0 | 0.00 | 0.01 | 0.00 | 93 | 1014.1 |
| 20260905132202 | 79 | 352 | 1.0 | 1.0 | 0.00 | 0.01 | 0.00 | 93 | 1014.1 |
| 20260905131722 | 79 | 353 | 0.0 | 1.0 | 0.00 | 0.01 | 0.00 | 94 | 1014.1 |
| 20260905131223 | 78 | 343 | 2.0 | 2.0 | 0.00 | 0.01 | 0.00 | 95 | 1014.0 |
| 20260905131156 | 78 | 326 | 0.0 | 1.0 | 0.00 | 0.01 | 0.00 | 95 | 1014.0 |
| 20260905130723 | 78 | 352 | 1.0 | 1.0 | 0.00 | 0.01 | 0.00 | 96 | 1014.0 |
| 20260905130222 | 77 | 332 | 2.0 | 3.0 | 0.00 | 0.01 | 0.00 | 98 | 1014.0 |
| 20260905130200 | 77 | 343 | 0.0 | 2.0 | 0.00 | 0.01 | 0.00 | 98 | 1014.0 |
| 20260905125723 | 77 | 354 | 3.0 | 3.0 | 0.00 | 0.01 | 0.00 | 100 | 1014.2 |
| 20260905125223 | 76 | 328 | 0.0 | 2.0 | 0.00 | 0.01 | 0.00 | 100 | 1014.2 |
| 20260905125156 | 76 | 346 | 2.0 | 3.0 | 0.00 | 0.01 | 0.00 | 100 | 1014.2 |
| 20260905124722 | 76 | 333 | 1.0 | 3.0 | 0.00 | 0.01 | 0.00 | 100 | 1014.2 |
| 20260905124223 | 75 | 359 | 1.0 | 2.0 | 0.00 | 0.01 | 0.00 | 100 | 1014.2 |
| 20260905124156 | 75 | 353 | 2.0 | 3.0 | 0.00 | 0.01 | 0.00 | 100 | 1014.2 |
| 20260905123723 | 75 | 350 | 0.0 | 1.0 | 0.00 | 0.01 | 0.00 | 100 | 1014.2 |
| 20260905123224 | 75 | 229 | 0.0 | 0.0 | 0.00 | 0.01 | 0.00 | 100 | 1014.2 |
| 20260905123157 | 75 | 229 | 0.0 | 0.0 | 0.00 | 0.01 | 0.00 | 100 | 1014.2 |
| 20260905122723 | 75 | 229 | 0.0 | 0.0 | 0.00 | 0.01 | 0.00 | 100 | 1014.0 |
| 20260905122223 | 75 | 229 | 0.0 | 0.0 | 0.00 | 0.01 | 0.00 | 100 | 1014.0 |
| 20260905122156 | 75 | 229 | 0.0 | 0.0 | 0.00 | 0.01 | 0.00 | 100 | 1014.0 |
| 20260905121723 | 74 | 229 | 0.0 | 0.0 | 0.00 | 0.01 | 0.00 | 100 | 1014.0 |
| 20260905121223 | 74 | 229 | 0.0 | 0.0 | 0.00 | 0.01 | 0.00 | 100 | 1013.8 |
| 20260905121156 | 74 | 229 | 0.0 | 0.0 | 0.00 | 0.01 | 0.00 | 100 | 1013.8 |
| 20260905120724 | 74 | 229 | 0.0 | 0.0 | 0.00 | 0.01 | 0.00 | 100 | 1013.8 |
| 20260905120222 | 74 | 229 | 0.0 | 0.0 | 0.00 | 0.01 | 0.00 | 100 | 1013.8 |
| 20260905120158 | 74 | 229 | 0.0 | 0.0 | 0.00 | 0.01 | 0.00 | 100 | 1013.8 |
| 20260905115722 | 74 | 229 | 0.0 | 0.0 | 0.00 | 0.01 | 0.00 | 100 | 1013.7 |
| 20260905115222 | 74 | 229 | 0.0 | 0.0 | 0.00 | 0.01 | 0.00 | 100 | 1013.7 |
| 20260905115156 | 74 | 229 | 0.0 | 0.0 | 0.00 | 0.01 | 0.00 | 100 | 1013.7 |
| 20260905114722 | 74 | 229 | 0.0 | 0.0 | 0.00 | 0.01 | 0.00 | 100 | 1013.7 |
| 20260905114230 | 75 | 229 | 0.0 | 0.0 | 0.00 | 0.01 | 0.00 | 100 | 1013.5 |
| 20260905114223 | 75 | 229 | 0.0 | 0.0 | 0.00 | 0.01 | 0.00 | 100 | 1013.5 |
| 20260905114157 | 75 | 229 | 0.0 | 0.0 | 0.00 | 0.01 | 0.00 | 100 | 1013.5 |
| 20260905113723 | 75 | 220 | 0.0 | 0.0 | 0.00 | 0.01 | 0.00 | 99 | 1013.5 |
| 20260905113222 | 75 | 220 | 0.0 | 0.0 | 0.00 | 0.01 | 0.00 | 99 | 1013.5 |
| 20260905113204 | 75 | 220 | 0.0 | 1.0 | 0.00 | 0.01 | 0.00 | 99 | 1013.5 |
| 20260905112722 | 75 | 222 | 1.0 | 1.0 | 0.00 | 0.01 | 0.00 | 99 | 1013.3 |
| 20260905112222 | 75 | 241 | 0.0 | 0.0 | 0.00 | 0.01 | 0.00 | 99 | 1013.3 |
| 20260905112202 | 75 | 241 | 0.0 | 0.0 | 0.00 | 0.01 | 0.00 | 99 | 1013.3 |
| 20260905111724 | 75 | 241 | 0.0 | 0.0 | 0.00 | 0.01 | 0.00 | 99 | 1013.3 |
| 20260905111223 | 75 | 260 | 0.0 | 1.0 | 0.00 | 0.01 | 0.00 | 99 | 1013.2 |
| 20260905111157 | 75 | 258 | 1.0 | 1.0 | 0.00 | 0.01 | 0.00 | 98 | 1013.2 |
| 20260905110723 | 75 | 301 | 0.0 | 2.0 | 0.00 | 0.01 | 0.00 | 98 | 1013.2 |
| 20260905110222 | 75 | 309 | 1.0 | 1.0 | 0.00 | 0.01 | 0.00 | 98 | 1013.2 |
| 20260905105722 | 75 | 301 | 1.0 | 1.0 | 0.00 | 0.01 | 0.00 | 98 | 1013.1 |
| 20260905105231 | 75 | 304 | 0.0 | 2.0 | 0.00 | 0.01 | 0.00 | 97 | 1013.1 |
| 20260905105222 | 75 | 319 | 0.0 | 2.0 | 0.00 | 0.01 | 0.00 | 97 | 1013.1 |
| 20260905105158 | 75 | 304 | 0.0 | 2.0 | 0.00 | 0.01 | 0.00 | 97 | 1013.1 |
| 20260905104723 | 75 | 302 | 1.0 | 2.0 | 0.00 | 0.01 | 0.00 | 97 | 1013.1 |
| 20260905104222 | 75 | 328 | 0.0 | 1.0 | 0.00 | 0.01 | 0.00 | 97 | 1013.1 |
| 20260905104156 | 75 | 316 | 1.0 | 1.0 | 0.00 | 0.01 | 0.00 | 97 | 1013.1 |
| 20260905103722 | 76 | 353 | 0.0 | 1.0 | 0.00 | 0.01 | 0.00 | 97 | 1013.1 |
| 20260905103223 | 76 | 316 | 0.0 | 2.0 | 0.00 | 0.01 | 0.00 | 97 | 1013.1 |
| 20260905103157 | 76 | 298 | 1.0 | 1.0 | 0.00 | 0.01 | 0.00 | 97 | 1013.1 |
| 20260905102724 | 76 | 304 | 1.0 | 1.0 | 0.00 | 0.01 | 0.00 | 97 | 1013.1 |
| 20260905102242 | 76 | 301 | 1.0 | 2.0 | 0.00 | 0.01 | 0.00 | 96 | 1013.1 |
| 20260905102222 | 76 | 295 | 1.0 | 1.0 | 0.00 | 0.01 | 0.00 | 96 | 1013.1 |
| 20260905102157 | 76 | 301 | 1.0 | 2.0 | 0.00 | 0.01 | 0.00 | 96 | 1013.1 |
| 20260905101723 | 76 | 342 | 2.0 | 2.0 | 0.00 | 0.01 | 0.00 | 96 | 1013.1 |
| 20260905101224 | 76 | 281 | 1.0 | 2.0 | 0.00 | 0.01 | 0.00 | 96 | 1013.0 |
| 20260905101159 | 76 | 288 | 2.0 | 2.0 | 0.00 | 0.01 | 0.00 | 96 | 1013.0 |
| 20260905100722 | 76 | 277 | 2.0 | 2.0 | 0.00 | 0.01 | 0.00 | 96 | 1013.0 |
| 20260905100222 | 76 | 308 | 2.0 | 5.0 | 0.00 | 0.01 | 0.00 | 96 | 1013.0 |
| 20260905100157 | 76 | 292 | 2.0 | 3.0 | 0.00 | 0.01 | 0.00 | 96 | 1013.0 |
| 20260905095723 | 76 | 287 | 1.0 | 3.0 | 0.00 | 0.01 | 0.00 | 96 | 1013.0 |
| 20260905095223 | 76 | 275 | 0.0 | 2.0 | 0.00 | 0.01 | 0.00 | 96 | 1013.0 |
| 20260905095157 | 76 | 301 | 2.0 | 3.0 | 0.00 | 0.01 | 0.00 | 96 | 1013.0 |
| 20260905094722 | 76 | 280 | 1.0 | 1.0 | 0.00 | 0.01 | 0.00 | 96 | 1013.0 |
| 20260905094223 | 76 | 267 | 0.0 | 2.0 | 0.00 | 0.01 | 0.00 | 95 | 1012.9 |
| 20260905094157 | 76 | 292 | 3.0 | 4.0 | 0.00 | 0.01 | 0.00 | 95 | 1012.9 |
| 20260905093723 | 76 | 294 | 2.0 | 2.0 | 0.00 | 0.01 | 0.00 | 95 | 1012.9 |
| 20260905093222 | 76 | 253 | 0.0 | 1.0 | 0.00 | 0.01 | 0.00 | 95 | 1012.9 |
| 20260905093157 | 76 | 253 | 0.0 | 1.0 | 0.00 | 0.01 | 0.00 | 95 | 1012.9 |
| 20260905092723 | 76 | 248 | 0.0 | 1.0 | 0.00 | 0.01 | 0.00 | 95 | 1012.9 |
| 20260905092223 | 76 | 253 | 2.0 | 3.0 | 0.00 | 0.01 | 0.00 | 94 | 1012.9 |
| 20260905092156 | 76 | 257 | 1.0 | 3.0 | 0.00 | 0.01 | 0.00 | 94 | 1012.9 |
| 20260905091724 | 76 | 246 | 0.0 | 0.0 | 0.00 | 0.01 | 0.00 | 94 | 1012.9 |
| 20260905091223 | 76 | 246 | 0.0 | 1.0 | 0.00 | 0.01 | 0.00 | 93 | 1012.8 |
| 20260905091155 | 76 | 246 | 1.0 | 2.0 | 0.00 | 0.01 | 0.00 | 93 | 1012.8 |
| 20260905090723 | 77 | 244 | 0.0 | 0.0 | 0.00 | 0.01 | 0.00 | 93 | 1012.8 |
| 20260905090224 | 77 | 232 | 0.0 | 0.0 | 0.00 | 0.01 | 0.00 | 92 | 1012.8 |
| 20260905090158 | 77 | 232 | 0.0 | 0.0 | 0.00 | 0.01 | 0.00 | 92 | 1012.8 |
| 20260905085723 | 77 | 246 | 1.0 | 2.0 | 0.00 | 0.01 | 0.00 | 92 | 1012.6 |
| 20260905085223 | 77 | 209 | 0.0 | 0.0 | 0.00 | 0.01 | 0.00 | 92 | 1012.6 |
| 20260905085156 | 77 | 209 | 0.0 | 1.0 | 0.00 | 0.01 | 0.00 | 91 | 1012.6 |
| 20260905084724 | 77 | 322 | 0.0 | 1.0 | 0.00 | 0.01 | 0.00 | 91 | 1012.6 |
| 20260905084223 | 77 | 250 | 0.0 | 2.0 | 0.00 | 0.01 | 0.00 | 91 | 1012.4 |
| 20260905084155 | 77 | 291 | 0.0 | 0.0 | 0.00 | 0.01 | 0.00 | 91 | 1012.4 |
| 20260905083723 | 77 | 265 | 3.0 | 3.0 | 0.00 | 0.01 | 0.00 | 91 | 1012.4 |
| 20260905083224 | 77 | 277 | 1.0 | 1.0 | 0.00 | 0.01 | 0.00 | 91 | 1012.4 |
| 20260905083156 | 77 | 254 | 0.0 | 2.0 | 0.00 | 0.01 | 0.00 | 91 | 1012.4 |
| 20260905082722 | 77 | 254 | 0.0 | 1.0 | 0.00 | 0.01 | 0.00 | 91 | 1012.4 |
| 20260905082227 | 77 | 243 | 0.0 | 0.0 | 0.00 | 0.01 | 0.00 | 91 | 1012.4 |
| 20260905082223 | 77 | 243 | 0.0 | 0.0 | 0.00 | 0.01 | 0.00 | 91 | 1012.4 |
| 20260905082156 | 77 | 243 | 0.0 | 0.0 | 0.00 | 0.01 | 0.00 | 91 | 1012.4 |
| 20260905081724 | 77 | 243 | 0.0 | 0.0 | 0.00 | 0.01 | 0.00 | 91 | 1012.4 |
| 20260905081550 | 77 | 253 | 0.0 | 0.0 | 0.00 | 0.01 | 0.00 | 91 | 1012.3 |
| 20260905081223 | 77 | 253 | 0.0 | 0.0 | 0.00 | 0.01 | 0.00 | 91 | 1012.3 |
| 20260905081157 | 77 | 253 | 0.0 | 0.0 | 0.00 | 0.01 | 0.00 | 91 | 1012.3 |
| 20260905080724 | 78 | 260 | 0.0 | 0.0 | 0.00 | 0.01 | 0.00 | 91 | 1012.3 |
| 20260905080223 | 78 | 257 | 1.0 | 2.0 | 0.00 | 0.01 | 0.00 | 91 | 1012.3 |
| 20260905080155 | 78 | 271 | 0.0 | 1.0 | 0.00 | 0.01 | 0.00 | 91 | 1012.3 |
| 20260905075723 | 78 | 257 | 2.0 | 2.0 | 0.00 | 0.01 | 0.00 | 92 | 1012.3 |
| 20260905075224 | 78 | 243 | 0.0 | 0.0 | 0.00 | 0.01 | 0.00 | 92 | 1012.3 |
| 20260905075157 | 78 | 227 | 0.0 | 0.0 | 0.00 | 0.01 | 0.00 | 92 | 1012.3 |
| 20260905074723 | 78 | 192 | 0.0 | 0.0 | 0.00 | 0.01 | 0.00 | 91 | 1012.3 |
| 20260905074222 | 78 | 253 | 0.0 | 0.0 | 0.00 | 0.01 | 0.00 | 91 | 1012.3 |
| 20260905074155 | 78 | 253 | 0.0 | 0.0 | 0.00 | 0.01 | 0.00 | 91 | 1012.3 |
| 20260905073724 | 78 | 257 | 0.0 | 0.0 | 0.00 | 0.01 | 0.00 | 91 | 1012.3 |
| 20260905073222 | 78 | 251 | 1.0 | 1.0 | 0.00 | 0.01 | 0.00 | 91 | 1012.3 |
| 20260905073155 | 78 | 250 | 0.0 | 1.0 | 0.00 | 0.01 | 0.00 | 91 | 1012.3 |
| 20260905072723 | 78 | 256 | 2.0 | 2.0 | 0.00 | 0.01 | 0.00 | 91 | 1012.2 |
| 20260905072224 | 78 | 203 | 0.0 | 0.0 | 0.00 | 0.01 | 0.00 | 90 | 1012.2 |
| 20260905072156 | 78 | 203 | 0.0 | 0.0 | 0.00 | 0.01 | 0.00 | 90 | 1012.2 |
| 20260905071722 | 78 | 203 | 0.0 | 0.0 | 0.00 | 0.01 | 0.00 | 89 | 1012.2 |
| 20260905071223 | 79 | 203 | 0.0 | 0.0 | 0.00 | 0.01 | 0.00 | 89 | 1012.3 |
| 20260905071156 | 79 | 203 | 0.0 | 0.0 | 0.00 | 0.01 | 0.00 | 88 | 1012.3 |
| 20260905070723 | 79 | 203 | 0.0 | 0.0 | 0.00 | 0.01 | 0.00 | 88 | 1012.3 |
| 20260905070224 | 79 | 203 | 0.0 | 0.0 | 0.00 | 0.01 | 0.00 | 87 | 1012.3 |
| 20260905070158 | 79 | 203 | 0.0 | 0.0 | 0.00 | 0.01 | 0.00 | 87 | 1012.3 |
| 20260905065722 | 79 | 203 | 0.0 | 0.0 | 0.00 | 0.01 | 0.00 | 86 | 1012.3 |
| 20260905065223 | 79 | 203 | 0.0 | 0.0 | 0.00 | 0.01 | 0.00 | 86 | 1012.3 |
| 20260905065158 | 79 | 203 | 0.0 | 0.0 | 0.00 | 0.01 | 0.00 | 86 | 1012.3 |
| 20260905064724 | 79 | 203 | 0.0 | 0.0 | 0.00 | 0.01 | 0.00 | 85 | 1012.3 |
| 20260905064222 | 79 | 189 | 0.0 | 0.0 | 0.00 | 0.01 | 0.00 | 84 | 1012.1 |
| 20260905064201 | 79 | 185 | 0.0 | 0.0 | 0.00 | 0.01 | 0.00 | 84 | 1012.1 |
| 20260905063723 | 79 | 117 | 0.0 | 0.0 | 0.00 | 0.01 | 0.00 | 83 | 1012.1 |
| 20260905063224 | 79 | 117 | 0.0 | 0.0 | 0.00 | 0.01 | 0.00 | 83 | 1012.1 |
| 20260905063158 | 79 | 117 | 0.0 | 0.0 | 0.00 | 0.01 | 0.00 | 83 | 1012.1 |
| 20260905062722 | 79 | 117 | 0.0 | 0.0 | 0.00 | 0.01 | 0.00 | 84 | 1012.3 |
| 20260905062224 | 79 | 117 | 0.0 | 0.0 | 0.00 | 0.01 | 0.00 | 84 | 1012.3 |
| 20260905062159 | 79 | 117 | 0.0 | 0.0 | 0.00 | 0.01 | 0.00 | 85 | 1012.3 |
| 20260905061723 | 80 | 117 | 0.0 | 0.0 | 0.00 | 0.01 | 0.00 | 85 | 1012.3 |
| 20260905061223 | 80 | 117 | 0.0 | 0.0 | 0.00 | 0.01 | 0.00 | 86 | 1012.3 |
| 20260905061157 | 80 | 117 | 0.0 | 0.0 | 0.00 | 0.01 | 0.00 | 86 | 1012.3 |
| 20260905060724 | 80 | 117 | 0.0 | 0.0 | 0.00 | 0.01 | 0.00 | 86 | 1012.3 |
| 20260905060223 | 80 | 117 | 0.0 | 0.0 | 0.00 | 0.01 | 0.00 | 86 | 1012.3 |
| 20260905060159 | 80 | 117 | 0.0 | 0.0 | 0.00 | 0.01 | 0.00 | 86 | 1012.3 |
| 20260905055722 | 80 | 117 | 0.0 | 0.0 | 0.00 | 0.01 | 0.00 | 86 | 1012.3 |
| 20260905055223 | 80 | 117 | 0.0 | 0.0 | 0.00 | 0.01 | 0.00 | 86 | 1012.3 |
| 20260905055156 | 80 | 117 | 0.0 | 0.0 | 0.00 | 0.01 | 0.00 | 86 | 1012.3 |
| 20260905054724 | 80 | 117 | 0.0 | 0.0 | 0.00 | 0.01 | 0.00 | 86 | 1012.3 |
| 20260905054222 | 80 | 117 | 0.0 | 0.0 | 0.00 | 0.01 | 0.00 | 86 | 1012.5 |
| 20260905054156 | 80 | 117 | 0.0 | 0.0 | 0.00 | 0.01 | 0.00 | 86 | 1012.5 |
| 20260905053723 | 80 | 117 | 0.0 | 0.0 | 0.00 | 0.01 | 0.00 | 86 | 1012.5 |
| 20260905053223 | 80 | 117 | 0.0 | 0.0 | 0.00 | 0.01 | 0.00 | 85 | 1012.5 |
| 20260905053157 | 80 | 117 | 0.0 | 0.0 | 0.00 | 0.01 | 0.00 | 85 | 1012.5 |
| 20260905052722 | 81 | 117 | 0.0 | 0.0 | 0.00 | 0.01 | 0.00 | 84 | 1012.7 |
| 20260905052223 | 81 | 143 | 1.0 | 2.0 | 0.00 | 0.01 | 0.00 | 84 | 1012.7 |
| 20260905052155 | 81 | 143 | 0.0 | 1.0 | 0.00 | 0.01 | 0.00 | 84 | 1012.7 |
| 20260905051723 | 81 | 145 | 0.0 | 1.0 | 0.00 | 0.01 | 0.00 | 84 | 1012.7 |
| 20260905051247 | 81 | 133 | 1.0 | 2.0 | 0.00 | 0.01 | 0.00 | 83 | 1012.7 |
| 20260905051222 | 81 | 144 | 1.0 | 2.0 | 0.00 | 0.01 | 0.00 | 83 | 1012.7 |
| 20260905051157 | 81 | 133 | 1.0 | 2.0 | 0.00 | 0.01 | 0.00 | 83 | 1012.7 |
| 20260905050723 | 81 | 107 | 0.0 | 0.0 | 0.00 | 0.01 | 0.00 | 82 | 1012.7 |
| 20260905050222 | 81 | 95 | 1.0 | 2.0 | 0.00 | 0.01 | 0.00 | 82 | 1012.7 |
| 20260905050155 | 81 | 95 | 1.0 | 1.0 | 0.00 | 0.01 | 0.00 | 82 | 1012.7 |
| 20260905045723 | 82 | 95 | 0.0 | 0.0 | 0.00 | 0.01 | 0.01 | 82 | 1012.6 |
| 20260905045224 | 82 | 95 | 0.0 | 0.0 | 0.00 | 0.01 | 0.01 | 81 | 1012.6 |
| 20260905045156 | 82 | 95 | 0.0 | 0.0 | 0.00 | 0.01 | 0.01 | 81 | 1012.6 |
| 20260905044722 | 82 | 95 | 0.0 | 0.0 | 0.00 | 0.01 | 0.01 | 81 | 1012.6 |
| 20260905044223 | 82 | 95 | 0.0 | 0.0 | 0.00 | 0.01 | 0.01 | 80 | 1012.7 |
| 20260905044157 | 82 | 95 | 0.0 | 0.0 | 0.00 | 0.01 | 0.01 | 80 | 1012.7 |
| 20260905043724 | 82 | 95 | 1.0 | 2.0 | 0.00 | 0.01 | 0.01 | 80 | 1012.7 |
| 20260905043222 | 82 | 95 | 0.0 | 0.0 | 0.00 | 0.01 | 0.01 | 79 | 1012.7 |
| 20260905043156 | 82 | 95 | 0.0 | 1.0 | 0.00 | 0.01 | 0.01 | 79 | 1012.7 |
| 20260905042723 | 82 | 76 | 1.0 | 1.0 | 0.00 | 0.01 | 0.01 | 77 | 1012.7 |
| 20260905042224 | 83 | 100 | 1.0 | 1.0 | 0.00 | 0.01 | 0.01 | 77 | 1012.7 |
| 20260905042157 | 83 | 100 | 1.0 | 2.0 | 0.00 | 0.01 | 0.01 | 77 | 1012.7 |
| 20260905041722 | 83 | 112 | 0.0 | 0.0 | 0.00 | 0.01 | 0.01 | 77 | 1012.7 |
| 20260905041223 | 83 | 104 | 1.0 | 1.0 | 0.00 | 0.01 | 0.01 | 77 | 1012.8 |
| 20260905041158 | 83 | 104 | 0.0 | 1.0 | 0.00 | 0.01 | 0.01 | 77 | 1012.8 |
| 20260905040723 | 83 | 107 | 1.0 | 1.0 | 0.00 | 0.01 | 0.01 | 77 | 1012.8 |
| 20260905040223 | 83 | 89 | 1.0 | 1.0 | 0.00 | 0.01 | 0.01 | 76 | 1012.8 |
| 20260905040156 | 83 | 89 | 0.0 | 2.0 | 0.00 | 0.01 | 0.01 | 76 | 1012.8 |
| 20260905035723 | 83 | 89 | 0.0 | 1.0 | 0.00 | 0.01 | 0.01 | 76 | 1012.9 |
| 20260905035222 | 83 | 90 | 1.0 | 2.0 | 0.00 | 0.01 | 0.01 | 76 | 1012.9 |
| 20260905035155 | 83 | 100 | 1.0 | 2.0 | 0.00 | 0.01 | 0.01 | 76 | 1012.9 |
| 20260905034723 | 83 | 78 | 1.0 | 2.0 | 0.00 | 0.01 | 0.01 | 76 | 1012.9 |
| 20260905034222 | 83 | 64 | 1.0 | 3.0 | 0.00 | 0.01 | 0.01 | 76 | 1013.0 |
| 20260905034159 | 84 | 83 | 2.0 | 2.0 | 0.00 | 0.01 | 0.01 | 75 | 1013.0 |
| 20260905033722 | 84 | 68 | 1.0 | 1.0 | 0.00 | 0.01 | 0.01 | 75 | 1013.0 |
| 20260905033223 | 84 | 73 | 1.0 | 1.0 | 0.00 | 0.01 | 0.01 | 75 | 1013.0 |
| 20260905033156 | 84 | 80 | 1.0 | 1.0 | 0.00 | 0.01 | 0.01 | 75 | 1013.0 |
| 20260905032722 | 84 | 82 | 2.0 | 2.0 | 0.00 | 0.01 | 0.01 | 75 | 1013.2 |
| 20260905032222 | 84 | 64 | 0.0 | 1.0 | 0.00 | 0.01 | 0.01 | 75 | 1013.2 |
| 20260905032155 | 84 | 64 | 0.0 | 1.0 | 0.00 | 0.01 | 0.01 | 75 | 1013.2 |
| 20260905031723 | 84 | 64 | 2.0 | 2.0 | 0.00 | 0.01 | 0.01 | 75 | 1013.2 |
| 20260905031222 | 84 | 80 | 1.0 | 2.0 | 0.00 | 0.01 | 0.01 | 75 | 1013.4 |
| 20260905031157 | 84 | 106 | 1.0 | 1.0 | 0.00 | 0.01 | 0.01 | 75 | 1013.4 |
| 20260905030723 | 84 | 86 | 1.0 | 1.0 | 0.00 | 0.01 | 0.01 | 75 | 1013.4 |
| 20260905030222 | 84 | 97 | 0.0 | 1.0 | 0.00 | 0.01 | 0.01 | 74 | 1013.4 |
| 20260905030157 | 84 | 65 | 0.0 | 2.0 | 0.00 | 0.01 | 0.01 | 74 | 1013.4 |
| 20260905025723 | 84 | 78 | 1.0 | 2.0 | 0.00 | 0.01 | 0.01 | 75 | 1013.5 |
| 20260905025223 | 84 | 48 | 1.0 | 2.0 | 0.00 | 0.01 | 0.01 | 74 | 1013.5 |
| 20260905025156 | 84 | 83 | 1.0 | 2.0 | 0.00 | 0.01 | 0.01 | 74 | 1013.5 |
| 20260905024723 | 84 | 79 | 2.0 | 2.0 | 0.00 | 0.01 | 0.01 | 75 | 1013.5 |
| 20260905024222 | 84 | 56 | 2.0 | 2.0 | 0.00 | 0.01 | 0.01 | 74 | 1013.6 |
| 20260905024157 | 84 | 69 | 1.0 | 2.0 | 0.00 | 0.01 | 0.01 | 74 | 1013.6 |
| 20260905023722 | 84 | 83 | 2.0 | 2.0 | 0.00 | 0.01 | 0.01 | 74 | 1013.6 |
| 20260905023223 | 84 | 73 | 1.0 | 2.0 | 0.00 | 0.01 | 0.01 | 74 | 1013.6 |
| 20260905023156 | 84 | 68 | 1.0 | 2.0 | 0.00 | 0.01 | 0.01 | 74 | 1013.6 |
| 20260905022722 | 84 | 100 | 2.0 | 2.0 | 0.00 | 0.01 | 0.01 | 74 | 1013.4 |
| 20260905022222 | 84 | 32 | 1.0 | 2.0 | 0.00 | 0.01 | 0.01 | 74 | 1013.4 |
| 20260905022155 | 84 | 65 | 1.0 | 1.0 | 0.00 | 0.01 | 0.01 | 74 | 1013.4 |
| 20260905021722 | 84 | 55 | 1.0 | 1.0 | 0.00 | 0.01 | 0.01 | 74 | 1013.4 |
| 20260905021223 | 84 | 97 | 0.0 | 1.0 | 0.00 | 0.01 | 0.01 | 73 | 1013.5 |
| 20260905021156 | 84 | 107 | 1.0 | 2.0 | 0.00 | 0.01 | 0.01 | 73 | 1013.5 |
| 20260905020723 | 84 | 96 | 1.0 | 3.0 | 0.00 | 0.01 | 0.01 | 73 | 1013.5 |
| 20260905020222 | 84 | 76 | 2.0 | 3.0 | 0.00 | 0.01 | 0.01 | 73 | 1013.5 |
| 20260905020157 | 84 | 79 | 2.0 | 2.0 | 0.00 | 0.01 | 0.01 | 73 | 1013.5 |
| 20260905015723 | 84 | 61 | 0.0 | 0.0 | 0.00 | 0.01 | 0.01 | 73 | 1013.4 |
| 20260905015223 | 84 | 58 | 2.0 | 3.0 | 0.00 | 0.01 | 0.01 | 73 | 1013.4 |
| 20260905015156 | 84 | 37 | 1.0 | 2.0 | 0.00 | 0.01 | 0.01 | 73 | 1013.4 |
| 20260905014722 | 84 | 55 | 2.0 | 3.0 | 0.00 | 0.01 | 0.01 | 73 | 1013.4 |
| 20260905014224 | 84 | 16 | 0.0 | 1.0 | 0.00 | 0.01 | 0.01 | 73 | 1013.2 |
| 20260905014156 | 84 | 16 | 2.0 | 2.0 | 0.00 | 0.01 | 0.01 | 73 | 1013.2 |
| 20260905013722 | 84 | 16 | 1.0 | 2.0 | 0.00 | 0.01 | 0.01 | 73 | 1013.2 |
| 20260905013223 | 84 | 14 | 1.0 | 2.0 | 0.00 | 0.01 | 0.01 | 73 | 1013.2 |
| 20260905013156 | 84 | 10 | 2.0 | 2.0 | 0.00 | 0.01 | 0.01 | 73 | 1013.2 |
| 20260905012725 | 84 | 8 | 1.0 | 2.0 | 0.00 | 0.01 | 0.01 | 73 | 1013.1 |
| 20260905012223 | 85 | 8 | 1.0 | 3.0 | 0.00 | 0.01 | 0.01 | 73 | 1013.1 |
| 20260905012157 | 85 | 13 | 2.0 | 3.0 | 0.00 | 0.01 | 0.01 | 73 | 1013.1 |
| 20260905011724 | 85 | 17 | 2.0 | 2.0 | 0.00 | 0.01 | 0.01 | 74 | 1013.1 |
| 20260905011223 | 85 | 14 | 1.0 | 2.0 | 0.00 | 0.01 | 0.01 | 73 | 1013.1 |
| 20260905011156 | 85 | 14 | 1.0 | 2.0 | 0.00 | 0.01 | 0.01 | 73 | 1013.1 |
| 20260905010723 | 85 | 6 | 1.0 | 2.0 | 0.00 | 0.01 | 0.01 | 73 | 1013.1 |
| 20260905010223 | 85 | 0 | 2.0 | 2.0 | 0.00 | 0.01 | 0.01 | 74 | 1013.1 |
| 20260905010157 | 85 | 0 | 2.0 | 2.0 | 0.00 | 0.01 | 0.01 | 74 | 1013.1 |
| 20260905005724 | 85 | 0 | 2.0 | 2.0 | 0.00 | 0.01 | 0.01 | 73 | 1013.1 |
| 20260905005222 | 85 | 4 | 1.0 | 3.0 | 0.00 | 0.01 | 0.01 | 72 | 1013.1 |
| 20260905005156 | 85 | 6 | 2.0 | 3.0 | 0.00 | 0.01 | 0.01 | 72 | 1013.1 |
| 20260905004723 | 85 | 4 | 2.0 | 3.0 | 0.00 | 0.01 | 0.01 | 72 | 1013.1 |
| 20260905004224 | 85 | 356 | 2.0 | 3.0 | 0.00 | 0.01 | 0.01 | 73 | 1013.0 |
| 20260905004156 | 86 | 356 | 2.0 | 2.0 | 0.00 | 0.01 | 0.01 | 73 | 1013.0 |
| 20260905003722 | 86 | 357 | 1.0 | 2.0 | 0.01 | 0.01 | 0.01 | 73 | 1013.0 |
| 20260905003223 | 86 | 356 | 1.0 | 2.0 | 0.01 | 0.01 | 0.01 | 73 | 1013.0 |
| 20260905003157 | 86 | 357 | 1.0 | 2.0 | 0.01 | 0.01 | 0.01 | 73 | 1013.0 |
| 20260905002723 | 86 | 357 | 2.0 | 3.0 | 0.01 | 0.01 | 0.01 | 72 | 1013.1 |
| 20260905002224 | 86 | 0 | 2.0 | 3.0 | 0.01 | 0.01 | 0.01 | 70 | 1013.1 |
| 20260905002157 | 86 | 0 | 2.0 | 3.0 | 0.01 | 0.01 | 0.01 | 70 | 1013.1 |
| 20260905001723 | 86 | 0 | 2.0 | 3.0 | 0.01 | 0.01 | 0.01 | 70 | 1013.1 |
| 20260905001223 | 86 | 0 | 1.0 | 2.0 | 0.01 | 0.01 | 0.01 | 70 | 1013.0 |
| 20260905001156 | 86 | 0 | 1.0 | 2.0 | 0.01 | 0.01 | 0.01 | 70 | 1013.0 |
| 20260905000724 | 87 | 0 | 1.0 | 2.0 | 0.01 | 0.01 | 0.01 | 70 | 1013.0 |
| 20260905000222 | 87 | 0 | 0.0 | 0.0 | 0.01 | 0.01 | 0.01 | 70 | 1013.0 |
| 20260905000156 | 87 | 0 | 0.0 | 0.0 | 0.01 | 0.01 | 0.01 | 70 | 1013.0 |
| 20260904235723 | 87 | 0 | 0.0 | 0.0 | 0.01 | 0.01 | 0.01 | 71 | 1013.0 |
| 20260904235224 | 87 | 0 | 0.0 | 0.0 | 0.01 | 0.01 | 0.01 | 71 | 1013.0 |
| 20260904235156 | 88 | 0 | 0.0 | 0.0 | 0.01 | 0.01 | 0.01 | 71 | 1013.0 |
| 20260904234722 | 88 | 0 | 1.0 | 2.0 | 0.01 | 0.01 | 0.01 | 71 | 1013.0 |
| 20260904234235 | 88 | 10 | 1.0 | 2.0 | 0.01 | 0.01 | 0.01 | 70 | 1013.0 |
| 20260904234223 | 88 | 10 | 1.0 | 2.0 | 0.01 | 0.01 | 0.01 | 70 | 1013.0 |
| 20260904234156 | 88 | 10 | 1.0 | 2.0 | 0.01 | 0.01 | 0.01 | 70 | 1013.0 |
| 20260904233723 | 88 | 8 | 1.0 | 2.0 | 0.01 | 0.01 | 0.01 | 69 | 1013.0 |
| 20260904233222 | 89 | 59 | 1.0 | 1.0 | 0.00 | 0.00 | 0.00 | 69 | 1013.0 |
| 20260904233157 | 89 | 59 | 1.0 | 1.0 | 0.00 | 0.00 | 0.00 | 69 | 1013.0 |